Location: Fort Worth, Tx
(32.7431°N, 97.3695°W)
Time: 12:23:02
(UTC-04:00)

Altair - Pass Details

Date: 08 October 2023
Orbit: 1501 x 1682 km, 47.2° (Epoch: 19 September)

Event Time Altitude Azimuth Distance (km) Brightness Sun altitude
Rises 11:46:32 0° 287° (WNW) 4,927 9.7 37.3°
Reaches altitude 10° 11:52:07 10° 263° (W) 3,941 9.4 38.2°
Maximum altitude 11:56:13 13° 239° (WSW) 3,681 9.5 38.9°
Drops below altitude 10° 12:00:20 10° 214° (SW) 3,923 9.9 39.5°
Sets 12:05:57 0° 189° (S) 4,884 10.5 40.3°
